www.pogodaiklimat.ru

Погода и климат >> Архив погоды >> Португалия >> Виана-ду-Каштелу


ПОГОДА в Виана-ду-Каштелу

  • Прогноз погоды в Виана-ду-Каштелу
  • Монитор погоды в Виана-ду-Каштелу

АРХИВ ПОГОДЫ в Виана-ду-Каштелу

Время (UTC), дата Ветер
(напр.,м/с)
 
Видим.   Явления Облачность Т
(С)
Тd
(С)
f
(%)
Тe
(С)
Тes
(С)
Комфортность P
(гПа)
Po
(гПа)
Тmin
(С)
Tmax
(С)
R
(мм)
R24
(мм)
S
(см)
03 13.06 штиль 0 н/о н/о +10.0 +8.9 93 +9 +9 1013.2 1007.4
06 13.06 штиль 0 н/о н/о +9.4 +8.9 97 +8 +8 1013.3 1007.5 +8.2
09 13.06 16 км н/о +15.5 +7.9 61 1013.5 1007.8
12 13.06 16 км н/о +17.4 +11.3 67 1013.8 1008.1
15 13.06 штиль 0 н/о н/о +17.5 +10.7 64 +18 +18 1013.8 1008.2
18 13.06 штиль 0 н/о н/о +17.2 +10.7 66 +17 +17 1013.7 1008.0 +19.4
21 13.06 штиль 0 н/о н/о +13.5 +10.2 80 +13 +13 1014.3 1008.5
00 14.06 штиль 0 н/о н/о +10.0 +8.5 90 +9 +9 1014.2 1008.3
03 14.06 штиль 0 н/о н/о +8.0 +7.3 95 +7 +7 1014.0 1008.2
06 14.06 штиль 0 н/о н/о +8.9 +8.5 97 +8 +8 1014.5 1008.6 +7.8
09 14.06 16 км н/о +16.5 +11.6 73 1015.6 1009.9
12 14.06 16 км н/о +18.1 +12.3 69 1016.8 1011.1
15 14.06 штиль 0 н/о н/о +19.0 +13.5 70 +20 +20 1017.4 1011.7
18 14.06 штиль 0 н/о н/о +17.1 +12.6 75 +17 +17 1018.0 1012.3 +20.2
21 14.06 штиль 0 н/о н/о +13.9 +12.3 90 +13 +13 1019.6 1013.8
00 15.06 штиль 0 н/о н/о +12.8 +12.2 96 +12 +12 1020.5 1014.7
03 15.06 штиль 0 н/о н/о +10.7 +10.5 99 +10 +10 1020.6 1014.8
06 15.06 штиль 0 н/о н/о +11.2 +11.0 99 +10 +10 1021.5 1015.6 +9.8
09 15.06 штиль 0 н/о н/о +15.9 +12.7 81 +16 +16 1022.3 1016.6
12 15.06 штиль 0 н/о н/о +18.2 +12.6 70 +18 +18 1023.1 1017.4
15 15.06 штиль 0 н/о н/о +18.9 +13.2 69 +20 +20 1022.8 1017.1
18 15.06 штиль 0 н/о н/о +17.8 +11.6 67 +18 +18 1022.1 1016.4 +20.4
21 15.06 штиль 0 н/о н/о +13.6 +10.8 83 +13 +13 1022.1 1016.3
00 16.06 штиль 0 н/о н/о +11.1 +9.6 90 +10 +10 1021.6 1015.7
03 16.06 штиль 0
{18}
н/о н/о +10.4 +9.5 94 +10 +10 1020.1 1014.3
06 16.06 штиль 0 н/о н/о +10.5 +10.0 97 +10 +10 1019.9 1014.0 +9.2
09 16.06 штиль 0 н/о н/о +17.6 +11.6 68 +18 +18 1019.7 1014.0
12 16.06 штиль 0 н/о н/о +19.1 +12.7 66 +20 +20 1019.1 1013.4
15 16.06 штиль 0 н/о н/о +20.7 +12.5 59 +23 +23 комфорт 1018.4 1012.7
18 16.06 штиль 0 н/о н/о +18.5 +11.6 64 +19 +19 1018.4 1012.8 +21.1
21 16.06 штиль 0 н/о н/о +15.4 +10.9 75 +15 +15 1019.3 1013.6
00 17.06 штиль 0 н/о н/о +13.8 +12.2 90 +13 +13 1019.2 1013.4
03 17.06 штиль 0 н/о н/о +10.2 +9.6 96 +9 +9 1017.9 1012.1
06 17.06 штиль 0 н/о н/о +10.6 +10.2 97 +10 +10 1017.8 1012.0 +8.9
09 17.06 14 км н/о +18.4 +13.6 74 1017.1 1011.5
12 17.06 15 км н/о +16.5 +13.5 82 1016.8 1011.1
15 17.06 штиль 0 н/о н/о +18.1 +13.1 73 +18 +18 1016.0 1010.3
18 17.06 штиль 0
{38}
н/о н/о +17.1 +13.7 80 +17 +17 1014.6 1008.9 +20.5
21 17.06 штиль 0 н/о н/о +14.2 +12.2 88 +14 +14 1013.6 1007.9
00 18.06 штиль 0 н/о н/о +14.1 +9.4 73 +14 +14 1013.5 1007.7
03 18.06 штиль 0 н/о н/о +14.7 +11.4 81 +14 +14 1011.9 1006.2
06 18.06 штиль 0 н/о н/о +13.7 +13.3 97 +13 +13 1011.3 1005.6 +13.2
09 18.06 8000 м в посл. час ливневой дождь н/о +16.8 +16.1 96 1011.0 1005.3 0.4
12 18.06 7000 м слаб. дождь н/о +18.9 +17.0 89 1011.1 1005.4 0.1
15 18.06 штиль 0 н/о н/о +19.3 +17.5 89 +21 +21 комфорт 1012.0 1006.4
18 18.06 штиль 0 н/о н/о +18.4 +17.3 93 +19 +19 1012.9 1007.3 +21.7
21 18.06 штиль 0 н/о н/о +17.3 +17.0 98 +17 +17 1013.8 1008.1
00 19.06 штиль 0 н/о н/о +16.6 +16.3 98 +16 +16 1014.1 1008.4
03 19.06 штиль 0 н/о н/о +16.5 +16.4 99 +16 +16 1014.1 1008.4
06 19.06 штиль 0 н/о н/о +16.5 +16.3 99 +16 +16 1014.8 1009.1 +16.2
09 19.06 8000 м в посл. час дождь н/о +17.6 +16.9 96 1015.8 1010.1 0.0
12 19.06 11 км {дождь} н/о +19.7 +17.3 86 1017.0 1011.3
15 19.06 штиль 0 н/о н/о +19.6 +16.2 81 +22 +22 комфорт 1017.4 1011.8
18 19.06 штиль 0 н/о н/о +18.8 +16.3 85 +20 +20 1017.2 1011.5 +22.0
21 19.06 штиль 0 н/о н/о +15.3 +14.1 93 +15 +15 1017.7 1011.9
00 20.06 штиль 0 н/о н/о +14.5 +14.0 97 +14 +14 1017.9 1012.1

 

Местоположение метеостанции Виана-ду-Каштелу (Португалия): широта 41.63 долгота -8.80 высота над уровнем моря 48 м.

В архиве по умолчанию представлена погода в Виана-ду-Каштелу за последнюю неделю. Архивные данные за месяц целиком и за предыдущие месяцы, начиная с января 2011 года, Вы можете получить, выбрав интересующий диапазон дат из раскрывающегося списка и нажав кнопку "Ввод!".


*Определитесь, кто Вы:
робот инопланетянин человек

Внимание! Время в таблицах - всемирное. Для получения местного времени необходимо прибавить поправку, которая равна 0 ч.

Смотрите также архив погоды в соседних городах и на ближайших метеорологических станциях:

Погода в Порту (Португалия) (46 км)
Погода в Виго (Испания) (68 км)
Погода в Оваре (Португалия) (80 км)
Погода в Понтеведре (Испания) (90 км)
Погода в Вила-Реале (Португалия) (99 км)
Погода в Хинсо-де-Лимии (Испания) (102 км)
Погода в Карбальино (Испания) (106 км)
Погода в Оренсе (Испания) (109 км)
Погода в Падроне (Испания) (124 км)
Погода в Визеу (Португалия) (127 км)

Пояснения к столбцам:

Ветер - указаны скорость ветра в м/с - средняя за 10 мин, порывы в срок и между сроками (в фигурных скобках) и направление, откуда дует ветер: С - северный, СВ - северо-восточный, В - восточный, ЮВ - юго-восточный, Ю - южный, ЮЗ - юго-западный, З - западный, СЗ - северо-западный.
Видимость - горизонтальная дальность видимости в метрах или километрах. При видимости от 1 до 10 км при отсутствии осадков обычно наблюдается дымка, при ухудшении видимости до 1 км и менее - туман. В сухую погоду видимость может ухудшаться дымом, пылью или мглою.
Явления - указаны атмосферные явления, наблюдавшиеся в срок или в последний час перед сроком; фигурными скобками обозначены явления, наблюдавшиеся между сроками (за 1-3 часа до срока); квадратными скобками обозначены град или гололедные отложения с указанием их диаметра в мм.
Облачность - указаны через наклонную черту общая и нижняя облачность в баллах и высота нижней границы облаков в метрах; квадратными скобками обозначены формы облаков: Ci - перистые, Cs - перисто-слоистые, Cc - перисто-кучевые, Ac - высококучевые, As - высокослоистые, Sc - слоисто-кучевые, Ns - слоисто-дождевые, Cu - кучевые, Cb - кучево-дождевые. Подробнее классификацию облаков см. в Атласе облаков (PDF).
T - Температура воздуха - температура, измеренная на высоте 2 м над землей.
Td - Температура точки росы - температура, при понижении до которой содержащийся в воздухе водяной пар достигнет насыщения.
f - Относительная влажность воздуха - влажноcть воздуха, измеренная на высоте 2 м над землей.
Te - Эффективная температура - температура, которую ощущает одетый по сезону человек в тени. Характеристика душности погоды. При расчете учитывается влияние влажности воздуха и скорости ветра на теплоощущения человека.
Tes - Эффективная температура на солнце - температура, которую ощущает человек, с поправкой на солнечный нагрев. Характеристика знойности погоды. Зависит от высоты солнца над горизонтом, облачности и скорости ветра. Ночью, в пасмурную погоду, а также при ветре 12 м/с и более поправка равна нулю.
P - Атмосферное давление - приведенное к уровню моря атмосферное давление.
Po - Атмосферное давление - измеренное на уровне метеостанции атмосферное давление.
Tmin - Минимальная температура - минимум температуры воздуха на высоте 2 м над землей.
Tmax - Максимальная температура - максимум температуры воздуха на высоте 2 м над землей.
R - Количество осадков - Количество выпавших осадков за период времени, мм. При наведении курсора мыши на число - период времени, за который выпало указанное количество осадков.
R24 - Количество осадков - Количество выпавших осадков за 24 часа, мм.
S - Снежный покров - Высота снежного покрова, см. При наведении курсора мыши на число - состояние снежного покрова и степень покрытия местности в баллах.